No particular awareness of the weather is required.    There are no Weather-warnings


Meteo18 Weather Cam more information Meteo18 Weather Cam


Thunder radar more information blitzortung!


Rain radar more information rain snow radar


Visit our other weather sites:

Template documentation
and downloads

And another site



Weather Underground History page Text

Daily Summary for December 31, 2017 Units:  English    Metric   Both
« Previous Day
Next Day »
Daily Weekly Monthly Yearly Custom
  High: Low: Average:
Temperature: TemperatureC °F 8.3 °F 11.5 °F
Dew Point: DewpointC °F 6.3 °F 8.9 °F
Humidity: Humidity % 64 % 84 %
Wind Speed: WindSpeedKMH mph 3.2 mph 15.9 mph
Wind Gust: WindSpeedGustKMH mph - -
Wind:- - SW
Pressure: PressurehPa in 1007.0 in -
Precipitation: 4.6 in    
Historical Graphs
 
 
Tabular Data for December 31, 2017
Time Temperature Dew Point Pressure Wind Wind Speed Wind Gust Humidity Rainfall Rate (Hourly)
TemperatureC °F DewpointC °F PressurehPa in Calm     Humidity % HourlyPrecipMM in
00:02 12.2 °F 10.4 °F 1017.5 in SSW 16.3 mph 27.4 mph 89 % 0.0 in
00:08 12.1 °F 10.3 °F 1017.5 in SW 19.5 mph 29.0 mph 89 % 0.0 in
00:14 12.1 °F 10.5 °F 1017.5 in SW 11.1 mph 19.3 mph 90 % 0.0 in
00:20 11.9 °F 10.3 °F 1017.8 in SW 16.3 mph 24.1 mph 90 % 0.0 in
00:26 11.8 °F 10.4 °F 1017.5 in SSW 13.0 mph 25.7 mph 91 % 0.0 in
00:32 11.6 °F 10.3 °F 1017.5 in SW 17.7 mph 20.9 mph 92 % 0.0 in
00:38 11.4 °F 10.3 °F 1017.5 in SW 17.7 mph 19.3 mph 93 % 0.0 in
00:44 11.4 °F 10.5 °F 1017.5 in SW 22.7 mph 24.1 mph 94 % 0.0 in
00:50 11.4 °F 10.5 °F 1017.5 in WSW 7.9 mph 22.5 mph 94 % 0.0 in
00:56 11.3 °F 10.4 °F 1017.5 in SW 13.0 mph 22.5 mph 94 % 0.0 in
01:02 11.3 °F 10.4 °F 1017.5 in SW 11.1 mph 16.1 mph 94 % 0.0 in
01:08 11.3 °F 10.5 °F 1017.5 in WSW 6.4 mph 9.7 mph 95 % 0.0 in
01:12 11.3 °F 10.5 °F 1017.5 in SW 11.1 mph 12.9 mph 95 % 0.0 in
01:19 11.3 °F 10.5 °F 1017.2 in SW 16.3 mph 24.1 mph 95 % 0.0 in
01:24 11.3 °F 10.4 °F 1017.2 in SSW 16.3 mph 20.9 mph 94 % 0.0 in
01:30 11.4 °F 10.5 °F 1017.2 in WSW 9.7 mph 20.9 mph 94 % 0.0 in
01:37 11.4 °F 10.3 °F 1017.2 in SW 14.3 mph 19.3 mph 93 % 0.0 in
01:42 11.4 °F 10.3 °F 1017.2 in SSW 9.7 mph 22.5 mph 93 % 0.0 in
01:49 11.5 °F 10.4 °F 1017.2 in WSW 11.1 mph 20.9 mph 93 % 0.0 in
01:55 11.6 °F 10.3 °F 1017.2 in SW 9.7 mph 19.3 mph 92 % 0.0 in
02:01 11.6 °F 10.3 °F 1016.8 in WSW 11.1 mph 16.1 mph 92 % 0.0 in
02:07 11.6 °F 10.3 °F 1016.8 in SW 17.7 mph 22.5 mph 92 % 0.0 in
02:13 11.7 °F 10.3 °F 1016.8 in SSW 7.9 mph 22.5 mph 91 % 0.0 in
02:19 11.7 °F 10.3 °F 1016.8 in SW 11.1 mph 19.3 mph 91 % 0.0 in
02:25 11.6 °F 10.2 °F 1016.8 in SW 16.3 mph 19.3 mph 91 % 0.0 in
02:31 11.6 °F 10.2 °F 1016.8 in SW 11.1 mph 20.9 mph 91 % 0.0 in
02:35 11.7 °F 10.3 °F 1016.8 in SW 13.0 mph 20.9 mph 91 % 0.0 in
02:41 11.7 °F 10.3 °F 1016.5 in SW 13.0 mph 19.3 mph 91 % 0.0 in
02:45 11.7 °F 10.3 °F 1016.8 in SW 9.7 mph 22.5 mph 91 % 0.0 in
02:51 11.7 °F 10.1 °F 1016.8 in SW 13.0 mph 17.7 mph 90 % 0.0 in
02:57 11.8 °F 10.2 °F 1016.8 in SW 16.3 mph 25.7 mph 90 % 0.0 in
03:03 11.9 °F 10.1 °F 1016.8 in SSW 16.3 mph 25.7 mph 89 % 0.0 in
03:07 11.8 °F 10.2 °F 1016.8 in SSW 9.7 mph 16.1 mph 90 % 0.0 in
03:13 11.7 °F 10.1 °F 1016.8 in SSW 16.3 mph 16.3 mph 90 % 0.0 in
03:19 11.6 °F 10.2 °F 1016.8 in SW 9.7 mph 14.5 mph 91 % 0.0 in
03:23 11.6 °F 10.2 °F 1016.8 in SSW 13.0 mph 16.1 mph 91 % 0.0 in
03:29 11.6 °F 10.2 °F 1016.5 in SW 22.7 mph 22.7 mph 91 % 0.0 in
03:35 11.6 °F 10.2 °F 1016.5 in SSW 13.0 mph 22.5 mph 91 % 0.0 in
03:41 11.6 °F 10.0 °F 1016.5 in SSW 9.7 mph 25.7 mph 90 % 0.0 in
03:47 11.7 °F 10.1 °F 1016.1 in SW 27.4 mph 27.4 mph 90 % 0.0 in
03:53 11.8 °F 10.0 °F 1016.1 in SSW 7.9 mph 22.5 mph 89 % 0.0 in
03:59 11.8 °F 10.0 °F 1016.1 in South 11.1 mph 19.3 mph 89 % 0.0 in
04:05 11.7 °F 9.9 °F 1016.1 in SW 16.3 mph 19.3 mph 89 % 0.0 in
04:07 11.7 °F 9.9 °F 1016.1 in South 7.9 mph 22.5 mph 89 % 0.0 in
04:15 11.9 °F 10.0 °F 1016.1 in SSW 11.1 mph 19.3 mph 88 % 0.0 in
04:23 11.9 °F 10.0 °F 1016.1 in SW 20.9 mph 22.5 mph 88 % 0.0 in
04:29 11.9 °F 9.8 °F 1016.1 in SSW 14.3 mph 25.7 mph 87 % 0.0 in
04:35 11.9 °F 9.8 °F 1016.1 in SW 14.3 mph 22.5 mph 87 % 0.0 in
04:41 11.9 °F 10.0 °F 1016.1 in SSW 9.7 mph 24.1 mph 88 % 0.0 in
04:43 11.9 °F 10.0 °F 1016.1 in SW 16.3 mph 24.1 mph 88 % 0.0 in
04:49 11.9 °F 9.8 °F 1016.1 in WSW 14.3 mph 19.3 mph 87 % 0.0 in
04:55 11.8 °F 9.9 °F 1015.8 in WSW 17.7 mph 22.5 mph 88 % 0.0 in
05:01 11.8 °F 9.9 °F 1015.8 in SSW 11.1 mph 17.7 mph 88 % 0.0 in
05:07 11.7 °F 9.8 °F 1015.8 in SW 7.9 mph 22.5 mph 88 % 0.0 in
05:13 11.8 °F 9.7 °F 1015.8 in South 13.0 mph 20.9 mph 87 % 0.0 in
05:19 11.8 °F 9.7 °F 1015.5 in SW 13.0 mph 19.3 mph 87 % 0.0 in
05:25 11.8 °F 9.7 °F 1015.5 in SW 17.7 mph 17.7 mph 87 % 0.0 in
05:31 11.7 °F 9.6 °F 1015.5 in SSW 7.9 mph 16.1 mph 87 % 0.0 in
05:37 11.4 °F 9.5 °F 1015.1 in South 9.7 mph 9.7 mph 88 % 0.0 in
05:43 11.3 °F 9.4 °F 1015.1 in SSW 7.9 mph 12.9 mph 88 % 0.0 in
05:49 11.3 °F 9.6 °F 1015.1 in SW 6.4 mph 11.3 mph 89 % 0.0 in
05:55 11.2 °F 9.5 °F 1015.1 in SSE 3.2 mph 11.3 mph 89 % 0.0 in
05:57 11.2 °F 9.5 °F 1015.1 in SSW 4.7 mph 11.3 mph 89 % 0.0 in
06:03 11.2 °F 9.5 °F 1015.1 in SSW 7.9 mph 8.0 mph 89 % 0.0 in
06:09 11.2 °F 9.5 °F 1015.1 in SSW 3.2 mph 8.0 mph 89 % 0.0 in
06:15 11.1 °F 9.4 °F 1015.1 in SSE 4.7 mph 9.7 mph 89 % 0.0 in
06:21 11.0 °F 9.3 °F 1014.8 in SSW 3.2 mph 6.4 mph 89 % 0.0 in
06:27 10.9 °F 9.3 °F 1014.8 in South 4.7 mph 8.0 mph 90 % 0.0 in
06:33 10.9 °F 9.2 °F 1014.8 in South 6.4 mph 8.0 mph 89 % 0.0 in
06:37 10.8 °F 9.2 °F 1014.8 in SSE 6.4 mph 8.0 mph 90 % 0.0 in
06:43 10.8 °F 9.2 °F 1014.8 in SSW 6.4 mph 8.0 mph 90 % 0.0 in
06:49 10.7 °F 9.1 °F 1014.8 in SSW 9.7 mph 12.9 mph 90 % 0.0 in
06:55 10.7 °F 9.1 °F 1014.8 in South 9.7 mph 11.3 mph 90 % 0.0 in
07:01 10.7 °F 9.1 °F 1014.8 in South 11.1 mph 11.3 mph 90 % 0.0 in
07:07 10.7 °F 9.1 °F 1014.4 in SSW 13.0 mph 14.5 mph 90 % 0.0 in
07:13 10.7 °F 9.1 °F 1014.4 in SW 7.9 mph 12.9 mph 90 % 0.0 in
07:19 10.7 °F 9.1 °F 1014.8 in SSW 7.9 mph 12.9 mph 90 % 0.0 in
07:25 10.7 °F 9.1 °F 1014.8 in SSW 11.1 mph 14.5 mph 90 % 0.0 in
07:31 10.7 °F 9.0 °F 1014.8 in South 13.0 mph 13.0 mph 89 % 0.0 in
07:37 10.7 °F 9.0 °F 1014.4 in SSW 9.7 mph 9.7 mph 89 % 0.0 in
07:43 10.7 °F 9.0 °F 1014.8 in SSE 6.4 mph 9.7 mph 89 % 0.0 in
07:49 10.6 °F 8.9 °F 1014.4 in South 3.2 mph 9.7 mph 89 % 0.0 in
07:55 10.6 °F 9.0 °F 1014.4 in SSW 7.9 mph 9.7 mph 90 % 0.0 in
08:01 10.6 °F 8.9 °F 1014.4 in SSW 9.7 mph 14.5 mph 89 % 0.0 in
08:07 10.7 °F 9.0 °F 1014.4 in SSW 7.9 mph 17.7 mph 89 % 0.0 in
08:13 10.7 °F 9.0 °F 1014.4 in SW 17.7 mph 17.7 mph 89 % 0.0 in
08:19 10.7 °F 9.0 °F 1014.4 in SSW 17.7 mph 17.7 mph 89 % 0.0 in
08:25 10.7 °F 8.8 °F 1014.4 in SSW 6.4 mph 16.1 mph 88 % 0.0 in
08:29 10.7 °F 8.8 °F 1014.4 in SSW 9.7 mph 14.5 mph 88 % 0.0 in
08:35 10.7 °F 9.0 °F 1014.4 in SSW 11.1 mph 14.5 mph 89 % 0.0 in
08:41 10.7 °F 9.0 °F 1014.1 in South 13.0 mph 19.3 mph 89 % 0.0 in
08:45 10.7 °F 9.0 °F 1014.4 in SW 14.3 mph 19.3 mph 89 % 0.0 in
08:51 10.6 °F 8.9 °F 1014.4 in SSW 13.0 mph 17.7 mph 89 % 0.0 in
08:57 10.6 °F 8.9 °F 1014.1 in SSW 14.3 mph 16.1 mph 89 % 0.0 in
09:03 10.6 °F 8.9 °F 1014.1 in SSW 13.0 mph 22.5 mph 89 % 0.0 in
09:09 10.6 °F 8.9 °F 1014.1 in SSW 11.1 mph 17.7 mph 89 % 0.0 in
09:13 10.6 °F 8.7 °F 1013.8 in SSW 9.7 mph 22.5 mph 88 % 0.0 in
09:19 10.5 °F 8.6 °F 1014.1 in SSW 11.1 mph 19.3 mph 88 % 0.0 in
09:25 10.6 °F 8.9 °F 1014.1 in South 13.0 mph 20.9 mph 89 % 0.0 in
09:31 10.6 °F 8.9 °F 1014.1 in SSW 11.1 mph 16.1 mph 89 % 0.0 in
09:37 10.7 °F 8.8 °F 1014.1 in SW 11.1 mph 17.7 mph 88 % 0.0 in
09:43 10.9 °F 9.0 °F 1014.1 in SSW 17.7 mph 19.3 mph 88 % 0.0 in
09:49 11.0 °F 8.9 °F 1014.1 in South 14.3 mph 19.3 mph 87 % 0.0 in
09:51 10.9 °F 9.0 °F 1014.1 in South 11.1 mph 25.7 mph 88 % 0.0 in
09:57 11.0 °F 8.9 °F 1013.8 in SSW 19.5 mph 25.7 mph 87 % 0.0 in
10:05 11.1 °F 9.0 °F 1014.1 in SSW 11.1 mph 16.1 mph 87 % 0.0 in
10:11 11.1 °F 9.0 °F 1013.8 in SSW 9.7 mph 16.1 mph 87 % 0.0 in
10:17 11.2 °F 8.9 °F 1013.8 in SSW 19.5 mph 19.5 mph 86 % 0.0 in
10:23 11.2 °F 8.9 °F 1013.8 in South 20.9 mph 20.9 mph 86 % 0.0 in
10:29 11.3 °F 9.0 °F 1013.8 in SSE 9.7 mph 17.7 mph 86 % 0.0 in
10:35 11.4 °F 9.0 °F 1013.4 in SSW 9.7 mph 25.7 mph 85 % 0.0 in
10:38 11.4 °F 9.0 °F 1013.4 in SSW 9.7 mph 25.7 mph 85 % 0.0 in
10:43 11.6 °F 9.2 °F 1013.4 in SSW 14.3 mph 20.9 mph 85 % 0.0 in
10:49 11.7 °F 9.1 °F 1013.4 in SSW 17.7 mph 27.4 mph 84 % 0.0 in
10:52 11.7 °F 9.1 °F 1013.4 in SW 19.5 mph 24.1 mph 84 % 0.0 in
10:58 11.8 °F 9.2 °F 1013.4 in SSW 17.7 mph 22.5 mph 84 % 0.0 in
11:04 11.9 °F 9.3 °F 1013.1 in South 22.7 mph 27.4 mph 84 % 0.0 in
11:10 12.0 °F 9.4 °F 1013.1 in SSW 11.1 mph 20.9 mph 84 % 0.0 in
11:16 12.1 °F 9.3 °F 1013.1 in SSW 17.7 mph 29.0 mph 83 % 0.0 in
11:20 12.1 °F 9.3 °F 1012.8 in South 17.7 mph 29.0 mph 83 % 0.0 in
11:26 12.2 °F 9.2 °F 1012.8 in SW 17.7 mph 22.5 mph 82 % 0.0 in
11:30 12.2 °F 9.4 °F 1012.8 in SSW 17.7 mph 25.7 mph 83 % 0.0 in
11:38 12.3 °F 9.3 °F 1012.8 in SSW 16.3 mph 20.9 mph 82 % 0.0 in
11:44 12.4 °F 9.4 °F 1012.4 in SSW 14.3 mph 24.1 mph 82 % 0.0 in
11:50 12.5 °F 9.3 °F 1012.1 in SSW 13.0 mph 30.6 mph 81 % 0.0 in
11:52 12.5 °F 9.3 °F 1012.1 in SSW 17.7 mph 29.0 mph 81 % 0.0 in
11:58 12.7 °F 9.5 °F 1011.7 in South 17.7 mph 25.7 mph 81 % 0.0 in
12:04 12.8 °F 9.6 °F 1011.7 in SSW 14.3 mph 24.1 mph 81 % 0.0 in
12:10 13.1 °F 9.5 °F 1011.7 in SSW 20.9 mph 33.8 mph 79 % 0.0 in
12:14 13.3 °F 9.9 °F 1011.7 in SSW 27.4 mph 32.2 mph 80 % 0.0 in
12:20 13.5 °F 9.5 °F 1011.4 in SSW 27.4 mph 38.6 mph 77 % 0.0 in
12:26 13.7 °F 9.5 °F 1011.1 in SW 22.7 mph 27.4 mph 76 % 0.0 in
12:38 13.7 °F 9.7 °F 1010.7 in SW 13.0 mph 29.0 mph 77 % 0.0 in
12:44 13.8 °F 9.4 °F 1010.7 in SSW 28.8 mph 35.4 mph 75 % 0.0 in
12:50 13.9 °F 9.7 °F 1010.4 in SW 22.7 mph 30.6 mph 76 % 0.0 in
12:56 14.0 °F 10.0 °F 1010.4 in SSW 16.3 mph 27.4 mph 77 % 0.0 in
13:02 14.0 °F 9.8 °F 1010.4 in SSW 27.4 mph 30.6 mph 76 % 0.0 in
13:04 14.0 °F 9.6 °F 1010.0 in SW 14.3 mph 24.1 mph 75 % 0.0 in
13:10 14.1 °F 9.9 °F 1010.0 in South 16.3 mph 30.6 mph 76 % 0.0 in
13:16 14.1 °F 9.5 °F 1010.0 in SSW 17.7 mph 27.4 mph 74 % 0.0 in
13:22 14.1 °F 9.5 °F 1009.7 in SSW 19.5 mph 30.6 mph 74 % 0.0 in
13:24 14.1 °F 9.7 °F 1009.7 in SSW 14.3 mph 24.1 mph 75 % 0.0 in
13:32 14.2 °F 9.8 °F 1009.7 in SSW 16.3 mph 27.4 mph 75 % 0.0 in
13:38 14.2 °F 9.8 °F 1009.4 in SSW 7.9 mph 27.4 mph 75 % 0.0 in
13:44 14.3 °F 9.9 °F 1009.4 in SSW 20.9 mph 25.7 mph 75 % 0.0 in
13:50 14.3 °F 9.7 °F 1009.4 in SW 14.3 mph 27.4 mph 74 % 0.0 in
13:56 14.3 °F 9.9 °F 1009.4 in SSW 13.0 mph 20.9 mph 75 % 0.0 in
14:02 14.4 °F 9.8 °F 1009.0 in SW 22.7 mph 27.4 mph 74 % 0.0 in
14:08 14.4 °F 9.8 °F 1009.0 in SSW 22.7 mph 27.4 mph 74 % 0.0 in
14:14 14.6 °F 10.0 °F 1009.0 in SW 19.5 mph 29.0 mph 74 % 0.0 in
14:20 14.6 °F 9.8 °F 1008.7 in SW 17.7 mph 25.7 mph 73 % 0.0 in
14:26 14.6 °F 9.6 °F 1008.7 in SSW 17.7 mph 25.7 mph 72 % 0.0 in
14:32 14.4 °F 9.4 °F 1008.7 in SW 22.7 mph 30.6 mph 72 % 0.0 in
14:38 14.8 °F 9.2 °F 1008.4 in SSE 11.1 mph 35.4 mph 69 % 0.0 in
14:42 15.1 °F 9.5 °F 1008.4 in SW 17.7 mph 25.7 mph 69 % 0.0 in
14:48 15.1 °F 9.5 °F 1008.4 in WSW 32.0 mph 32.2 mph 69 % 0.0 in
14:54 15.1 °F 8.6 °F 1008.4 in SSW 27.4 mph 41.8 mph 65 % 0.0 in
15:00 14.9 °F 8.4 °F 1008.0 in SW 32.0 mph 40.2 mph 65 % 0.0 in
15:06 14.8 °F 8.5 °F 1008.0 in SW 33.8 mph 38.6 mph 66 % 0.0 in
15:12 14.9 °F 8.4 °F 1008.0 in SSW 27.4 mph 40.2 mph 65 % 0.0 in
15:18 14.9 °F 8.1 °F 1008.0 in SW 30.6 mph 40.2 mph 64 % 0.0 in
15:24 14.8 °F 8.1 °F 1008.0 in SW 24.1 mph 46.7 mph 64 % 0.0 in
15:30 14.6 °F 8.3 °F 1007.7 in WSW 27.4 mph 30.6 mph 66 % 0.0 in
15:36 14.5 °F 8.0 °F 1007.7 in SW 25.9 mph 29.0 mph 65 % 0.0 in
15:40 14.5 °F 7.8 °F 1007.7 in SW 20.9 mph 35.4 mph 64 % 0.0 in
15:46 14.2 °F 7.9 °F 1007.3 in SW 20.9 mph 30.6 mph 66 % 0.0 in
15:52 14.1 °F 8.1 °F 1007.3 in SSW 17.7 mph 30.6 mph 67 % 0.0 in
15:54 14.1 °F 8.1 °F 1007.3 in SW 20.9 mph 32.2 mph 67 % 0.0 in
16:00 14.1 °F 7.8 °F 1007.3 in SW 28.8 mph 37.0 mph 66 % 0.0 in
16:06 13.9 °F 8.1 °F 1007.0 in SSW 24.1 mph 32.2 mph 68 % 0.0 in
16:12 13.8 °F 8.0 °F 1007.3 in South 19.5 mph 33.8 mph 68 % 0.0 in
16:18 13.7 °F 8.1 °F 1007.3 in SSW 17.7 mph 29.0 mph 69 % 0.0 in
16:24 13.5 °F 8.1 °F 1007.3 in SW 27.4 mph 32.2 mph 70 % 0.0 in
16:30 13.4 °F 8.0 °F 1007.3 in SW 22.7 mph 25.7 mph 70 % 0.0 in
16:32 13.3 °F 7.9 °F 1007.3 in SW 20.9 mph 25.7 mph 70 % 0.0 in
16:38 13.2 °F 7.8 °F 1007.0 in SW 22.7 mph 30.6 mph 70 % 0.0 in
16:44 13.0 °F 7.7 °F 1007.3 in SSW 13.0 mph 24.1 mph 70 % 0.0 in
16:50 12.9 °F 7.6 °F 1007.3 in SSW 20.9 mph 22.5 mph 70 % 0.0 in
16:57 13.1 °F 7.5 °F 1007.3 in SW 20.9 mph 20.9 mph 69 % 0.0 in
17:02 13.2 °F 7.6 °F 1007.3 in WSW 22.7 mph 22.7 mph 69 % 0.0 in
17:06 13.2 °F 7.6 °F 1007.3 in WSW 24.1 mph 29.0 mph 69 % 0.0 in
17:13 13.1 °F 7.5 °F 1007.3 in WSW 16.3 mph 30.6 mph 69 % 0.0 in
17:19 13.1 °F 7.8 °F 1007.3 in SW 20.9 mph 29.0 mph 70 % 0.0 in
17:24 13.0 °F 7.7 °F 1007.3 in WSW 20.9 mph 27.4 mph 70 % 0.0 in
17:30 12.9 °F 7.6 °F 1007.3 in SW 16.3 mph 29.0 mph 70 % 0.0 in
17:36 12.8 °F 7.9 °F 1007.0 in SSW 13.0 mph 27.4 mph 72 % 0.0 in
17:43 12.7 °F 7.8 °F 1007.0 in WSW 22.7 mph 29.0 mph 72 % 0.0 in
17:49 12.8 °F 7.9 °F 1007.0 in SW 20.9 mph 33.8 mph 72 % 0.0 in
17:55 12.8 °F 7.9 °F 1007.0 in SW 20.9 mph 29.0 mph 72 % 0.0 in
18:01 12.8 °F 7.9 °F 1007.3 in SW 13.0 mph 22.5 mph 72 % 0.0 in
18:06 12.8 °F 7.9 °F 1007.3 in SW 22.7 mph 32.2 mph 72 % 0.0 in
18:13 12.8 °F 8.1 °F 1007.3 in WSW 20.9 mph 29.0 mph 73 % 0.0 in
18:19 12.6 °F 8.5 °F 1007.7 in WSW 14.3 mph 29.0 mph 76 % 0.0 in
18:25 12.1 °F 8.8 °F 1007.7 in WSW 19.5 mph 35.4 mph 80 % 0.0 in
18:31 11.6 °F 8.8 °F 1008.0 in West 16.3 mph 35.4 mph 83 % 0.3 in
18:37 11.2 °F 8.9 °F 1008.0 in SW 35.2 mph 35.4 mph 86 % 0.3 in
18:43 10.9 °F 9.0 °F 1008.0 in SW 14.3 mph 29.0 mph 88 % 0.5 in
18:49 10.7 °F 9.0 °F 1008.4 in WSW 17.7 mph 30.6 mph 89 % 0.8 in
18:55 10.6 °F 9.0 °F 1008.4 in SW 14.3 mph 29.0 mph 90 % 1.0 in
19:01 10.4 °F 8.8 °F 1008.4 in WSW 13.0 mph 33.8 mph 90 % 1.3 in
19:07 10.3 °F 8.6 °F 1008.7 in WSW 24.1 mph 35.4 mph 89 % 1.5 in
19:15 10.3 °F 8.6 °F 1009.0 in West 24.1 mph 40.2 mph 89 % 1.5 in
19:23 10.2 °F 8.6 °F 1009.0 in WSW 13.0 mph 22.5 mph 90 % 1.5 in
19:27 10.1 °F 8.5 °F 1009.0 in WSW 6.4 mph 25.7 mph 90 % 1.5 in
19:33 10.1 °F 8.7 °F 1009.0 in SSW 13.0 mph 22.5 mph 91 % 1.5 in
19:41 9.9 °F 8.7 °F 1009.0 in WSW 13.0 mph 14.5 mph 92 % 1.5 in
19:45 9.9 °F 8.7 °F 1009.0 in SW 7.9 mph 12.9 mph 92 % 1.3 in
19:51 9.8 °F 8.6 °F 1009.0 in West 11.1 mph 20.9 mph 92 % 1.5 in
19:53 9.8 °F 8.7 °F 1009.0 in SW 7.9 mph 16.1 mph 93 % 1.8 in
19:59 9.8 °F 8.7 °F 1009.4 in WSW 9.7 mph 24.1 mph 93 % 2.0 in
20:01 9.8 °F 8.9 °F 1009.0 in SW 27.4 mph 27.4 mph 94 % 2.0 in
20:07 9.8 °F 8.7 °F 1009.0 in SW 16.3 mph 27.4 mph 93 % 2.3 in
20:13 9.7 °F 8.6 °F 1009.4 in WSW 30.6 mph 37.0 mph 93 % 2.3 in
20:15 9.7 °F 8.5 °F 1009.4 in WSW 27.4 mph 37.0 mph 92 % 2.3 in
20:21 9.6 °F 8.4 °F 1009.7 in WSW 32.0 mph 32.2 mph 92 % 2.3 in
20:27 9.6 °F 8.4 °F 1009.7 in SSW 25.9 mph 32.2 mph 92 % 2.3 in
20:33 9.5 °F 8.1 °F 1009.7 in WSW 20.9 mph 30.6 mph 91 % 2.5 in
20:39 9.4 °F 8.0 °F 1010.0 in WSW 17.7 mph 35.4 mph 91 % 2.5 in
20:47 9.4 °F 8.0 °F 1010.0 in SSW 24.1 mph 37.0 mph 91 % 2.3 in
20:53 9.3 °F 7.9 °F 1010.4 in SW 20.9 mph 43.4 mph 91 % 1.5 in
20:59 9.3 °F 7.9 °F 1010.4 in SW 20.9 mph 33.8 mph 91 % 1.3 in
21:05 9.2 °F 7.6 °F 1010.4 in SSW 35.2 mph 40.2 mph 90 % 0.8 in
21:11 9.2 °F 7.3 °F 1010.4 in WSW 19.5 mph 35.4 mph 88 % 0.5 in
21:17 9.1 °F 7.4 °F 1010.4 in SW 19.5 mph 32.2 mph 89 % 0.5 in
21:23 9.0 °F 7.3 °F 1010.4 in WSW 19.5 mph 29.0 mph 89 % 0.5 in
21:29 8.9 °F 7.2 °F 1010.7 in West 17.7 mph 33.8 mph 89 % 0.3 in
21:35 8.8 °F 6.9 °F 1010.7 in West 13.0 mph 27.4 mph 88 % 0.5 in
21:41 8.7 °F 7.2 °F 1010.7 in West 14.3 mph 30.6 mph 90 % 0.5 in
21:47 8.6 °F 7.2 °F 1011.1 in West 13.0 mph 20.9 mph 91 % 0.5 in
21:51 8.6 °F 7.4 °F 1011.1 in SW 11.1 mph 20.9 mph 92 % 0.5 in
21:57 8.5 °F 7.3 °F 1010.7 in SSW 13.0 mph 24.1 mph 92 % 0.5 in
22:03 8.6 °F 7.2 °F 1011.1 in SW 17.7 mph 29.0 mph 91 % 0.3 in
22:09 8.7 °F 7.3 °F 1011.1 in SW 19.5 mph 24.1 mph 91 % 0.3 in
22:15 8.7 °F 7.3 °F 1011.1 in West 9.7 mph 19.3 mph 91 % 0.3 in
22:21 8.7 °F 7.2 °F 1011.4 in SW 24.1 mph 27.4 mph 90 % 0.3 in
22:27 8.8 °F 7.2 °F 1011.4 in WSW 20.9 mph 32.2 mph 90 % 0.3 in
22:33 8.8 °F 7.2 °F 1011.4 in SSW 14.3 mph 20.9 mph 90 % 0.0 in
22:39 8.8 °F 7.1 °F 1011.7 in WSW 25.9 mph 25.9 mph 89 % 0.0 in
22:45 8.8 °F 7.1 °F 1011.7 in WSW 28.8 mph 32.2 mph 89 % 0.0 in
22:51 8.7 °F 7.0 °F 1011.7 in WSW 11.1 mph 19.3 mph 89 % 0.0 in
22:57 8.6 °F 6.9 °F 1011.7 in WSW 22.7 mph 32.2 mph 89 % 0.0 in
23:03 8.6 °F 6.7 °F 1011.7 in SW 14.3 mph 22.5 mph 88 % 0.0 in
23:09 8.5 °F 6.6 °F 1012.1 in WNW 11.1 mph 27.4 mph 88 % 0.0 in
23:15 8.4 °F 6.5 °F 1012.1 in West 9.7 mph 22.5 mph 88 % 0.0 in
23:21 8.4 °F 6.5 °F 1012.1 in WSW 7.9 mph 25.7 mph 88 % 0.0 in
23:27 8.4 °F 6.5 °F 1012.1 in WSW 9.7 mph 22.5 mph 88 % 0.0 in
23:33 8.4 °F 6.5 °F 1012.1 in West 16.3 mph 20.9 mph 88 % 0.0 in
23:39 8.4 °F 6.4 °F 1012.1 in WSW 14.3 mph 30.6 mph 87 % 0.0 in
23:43 8.4 °F 6.4 °F 1012.4 in SW 16.3 mph 30.6 mph 87 % 0.0 in
23:49 8.3 °F 6.3 °F 1012.4 in West 22.7 mph 24.1 mph 87 % 0.0 in
23:55 8.3 °F 6.3 °F 1012.4 in WSW 19.5 mph 29.0 mph 87 % 0.0 in
Meteo18
Compliments of Weather Underground - 4 mb

Script developed by  Jim McMurry - jmcmurry@mwt.net Adapted for the template by  Wim van der Kuil - Leuven-Template.eu

You find our weather info also at:

European Weather Network

Weather Underground

Equipment we use:

Weather-station
Davis Vue

Weather-program
Meteobridge

Weather-server
Raspberry PI 2 B+

Provider
1 and 1

Davis Vue

Meteobridge

Raspberry PI 2 B+

1 and 1